Regional Weather Roundup
Issued by NWS Sterling, VA

Home | Current Version | Previous Version | Text Only | Print | Product List | Glossary Off
Versions: 1 2 3 4 5 6 7 8 9 10 11 12 13 14 15 16 17 18 19 20 21 22 23 24 25 26 27 28

000
ASUS41 KLWX 260411
RWRLWX

REGIONAL WEATHER ROUNDUP
NATIONAL WEATHER SERVICE BALTIMORE MD/WASHINGTON DC
1200 AM EDT MON JUN 26 2017

Note: "FAIR" indicates few or no clouds below 12,000 feet
with no significant weather and/or obstructions to visibility.
 TC=TEMPERATURE CELSIUS

 * =Non NWS site. Station does not report precipitation (e.g. rain,
    snow, etc.), thunder, or fog.

DCZ001-MDZ009-015-VAZ040>042-051-053>054-260500-
WASHINGTON METRO

CITY           SKY/WX    TMP DP  RH WIND       PRES   REMARKS
WASHINGTON NAT PTCLDY    76  45  33 NW8       30.04S
DULLES         CLEAR     65  47  52 W3        30.06S
ANDREWS AFB    PTCLDY    71  48  43 W6        30.04S
FT BELVOIR     CLEAR     61  53  73 CALM      30.04S
QUANTICO       CLEAR     68  58  70 NW7       30.06R
COLLEGE PARK*  CLEAR     72  46  40 CALM      30.04S
LEESBURG*      CLEAR    N/A N/A N/A SW5       30.07S
MANASSAS*      CLEAR     59  54  83 CALM      30.06S
GAITHERSBURG*  CLEAR     62  53  72 CALM      30.06F

$$

MDZ006>007-011-014-260500-
BALTIMORE METRO

CITY           SKY/WX    TMP DP  RH WIND       PRES   REMARKS
BWI AIRPORT    PTCLDY    68  50  52 W8        30.03S
MD SCIENCE CTR   N/A     75  48  38 MISG      30.03S
MARTIN STATE   CLEAR     72  52  49 NW5       30.04S
ANNAPOLIS      CLEAR     71  57  61 NW6       30.02S
FORT MEADE*    CLEAR     61  54  77 NW5       30.06S

$$

MDZ012-015-019>023-260500-
MARYLAND EASTERN SHORE

CITY           SKY/WX    TMP DP  RH WIND       PRES   REMARKS
OCEAN CITY     CLOUDY    72  61  68 NW7       30.02R
SALISBURY      CLOUDY    66  63  90 S3        30.03S
BAY BRIDGE AP* CLEAR     75  52  43 NW12      30.03R
CAMBRIDGE*     MOCLDY    75  52  43 VRB6      30.03R
EASTON*        CLEAR     73  53  48 NW5       30.06R

$$

MDZ017>025-260500-
SOUTHERN MARYLAND

CITY           SKY/WX    TMP DP  RH WIND       PRES   REMARKS
PATUXENT RIVER MOCLDY    71  58  63 W5        30.03S
ST INIGOES     MOCLDY    73  59  61 NW3       30.03S
LEONARDTOWN*   MOCLDY    68  54  60 CALM      30.06R

$$

MDZ003>005-260500-
NORTH CENTRAL MARYLAND

CITY           SKY/WX    TMP DP  RH WIND       PRES   REMARKS
FREDERICK*     CLEAR     63  54  72 SE3       30.08S
HAGERSTOWN APT MOCLDY    69  50  50 SW6       30.06S
WESTMINSTER*   MOCLDY    70  50  49 CALM      30.06S

$$

MDZ501>502-260500-
WESTERN MARYLAND

CITY           SKY/WX    TMP DP  RH WIND       PRES   REMARKS
OAKLAND*       NOT AVBL
CUMBERLAND*    CLEAR     63  52  67 N5        30.13R

$$

VAZ025>031-260500-
SHENANDOAH VALLEY

CITY           SKY/WX    TMP DP  RH WIND       PRES   REMARKS
WINCHESTER*    CLEAR     64  46  52 SW3       30.08S
FRONT ROYAL*   CLEAR     63  46  55 SW6       30.08S
LURAY*         PTCLDY    61  52  72 CALM      30.11R
NEW MARKET*    CLOUDY    60  52  75 CALM      30.11S
STAUNTON*      CLEAR     58  49  71 CALM      30.14S
WAYNESBORO*    CLEAR     58  50  74 SW6       30.14S

$$

WVZ021-048>050-054>055-260500-
EASTERN WEST VIRGINIA PANHANDLE

CITY           SKY/WX    TMP DP  RH WIND       PRES   REMARKS
MARTINSBURG    PTCLDY    64  48  56 SW3       30.06S
PETERSBURG*    PTCLDY    62  55  77 CALM      30.12S

$$

VAZ036>039-050-260500-
CENTRAL FOOTHILLS

CITY           SKY/WX    TMP DP  RH WIND       PRES   REMARKS
CHARLOTTESVILL CLEAR     65  50  58 CALM      30.10R
CULPEPER*      CLEAR     68  49  49 NW5       30.08S
ORANGE*        CLEAR     64  48  55 W6        30.08S
GORDONSVILLE*  CLEAR     69  47  45 NW3       30.08S
WARRENTON*     CLEAR     57  51  81 CALM      30.06F

$$

VAZ055>057-260500-
NORTH AND CENTRAL PIEDMONT

CITY           SKY/WX    TMP DP  RH WIND       PRES   REMARKS
FREDERICKSBRG* PTCLDY    66  57  73 CALM      30.06R
STAFFORD*      CLEAR     58  56  96 CALM      30.10S

$$

NCZ024-NYZ072-PAZ021-071-VAZ022-071-260500-
OTHER REGIONAL OBSERVATIONS

CITY           SKY/WX    TMP DP  RH WIND       PRES   REMARKS
NEW YORK CITY  CLOUDY    76  49  38 VRB5      29.99R
PHILADELPHIA   CLEAR     75  47  36 W12       30.00S
PITTSBURGH     CLEAR     60  46  59 SW6       30.09R
ROANOKE        CLEAR     62  49  62 CALM      30.17S
RICHMOND       CLEAR     72  60  66 NW9       30.06R
RALEIGH        MOCLDY    71  65  81 CALM      30.11R

$$

ANZ530>537-260500-
MARINE OBSERVATIONS

STATION/POSITION TIME  TEMP    WIND        PRES
                       AIR SEA DIR/SP/G
                 (UTC) (F)     (DEG/KT/KT) (MB)
THOMAS PT LIGHT  0400   76 78  300/ 11/ 12   N/A
BALT KEY BRIDGE  0348   75     280/ 12/ 13 1016.3F
COVE POINT       0348   76     310/  6/  7 1017.6R
LEWISETTA        0348   78 80  320/  4/  7 1017.0F
SOLOMONS ISLAND  0348          270/  4/  5   N/A
PINEY POINT      0348          340/  7/  8   N/A

$$





USA.gov is the U.S. government's official web portal to all federal, state and local government web resources and services.